Date,TemperatureHighF,TemperatureAvgF,TemperatureLowF,DewpointHighF,DewpointAvgF,DewpointLowF,HumidityHigh,HumidityAvg,HumidityLow,PressureMaxIn,PressureMinIn,WindSpeedMaxMPH,WindSpeedAvgMPH,GustSpeedMaxMPH,PrecipitationSumIn
2012-1-1,48,38,30,43,34,25,93,85,69,29.94,29.59,29,6,29,0.00
2012-1-2,30,27,21,27,20,12,92,78,65,30.23,29.93,23,5,23,0.00
2012-1-3,24,20,16,16,12,8,84,70,57,30.37,30.23,20,3,20,0.00
2012-1-4,35,28,18,28,20,14,87,74,61,30.25,29.93,13,2,14,0.00
2012-1-5,42,34,24,34,29,23,98,81,59,30.06,29.76,16,2,16,0.00
2012-1-6,54,44,35,40,36,33,94,74,56,29.79,29.71,17,3,17,0.00
2012-1-7,45,39,29,36,32,23,94,75,58,30.23,29.71,15,3,15,0.00
2012-1-8,40,31,24,26,23,19,94,75,45,30.40,30.23,8,0,8,0.00
2012-1-9,43,34,22,29,26,21,96,73,51,30.32,29.98,17,2,17,0.00
2012-1-10,48,35,25,35,30,24,98,82,56,30.10,29.91,8,1,9,0.00
2012-1-11,47,35,24,38,32,23,99,91,64,29.91,29.46,11,1,11,0.19
2012-1-12,40,34,19,39,33,14,99,95,79,29.50,29.34,24,3,24,0.07
2012-1-13,23,21,18,20,17,14,93,86,81,30.03,29.47,21,6,21,0.00
2012-1-14,22,20,19,17,16,15,91,86,80,30.31,30.03,12,2,12,0.00
2012-1-15,26,20,18,19,16,14,91,83,68,30.52,30.30,11,1,11,0.00
2012-1-16,45,35,18,44,30,14,98,84,68,30.32,29.80,17,2,17,0.07
2012-1-17,54,43,27,51,40,18,99,89,67,30.10,29.41,29,5,29,0.65
2012-1-18,27,24,21,20,16,13,85,71,62,30.32,30.05,18,2,18,0.00
2012-1-19,29,20,2,27,15,-2,94,81,62,30.24,29.84,20,4,20,0.00
2012-1-20,18,11,-2,16,6,-5,93,83,57,30.38,30.10,10,0,10,0.00
2012-1-21,26,17,9,16,12,7,93,82,64,30.36,30.09,10,1,10,0.00
2012-1-22,40,27,11,38,26,9,99,93,89,30.31,29.80,16,1,16,0.11
2012-1-23,52,42,32,49,38,25,99,88,74,29.91,29.49,29,5,29,0.47
2012-1-24,33,32,30,28,26,25,84,80,77,30.37,29.91,17,4,17,0.00
2012-1-25,32,30,29,28,26,24,93,83,76,30.42,30.17,7,0,7,0.00
2012-1-26,34,33,30,34,32,28,99,97,92,30.17,29.53,9,1,9,0.23
2012-1-27,41,34,28,34,31,25,99,88,61,30.01,29.53,16,2,16,0.17
2012-1-28,36,32,29,32,26,18,97,80,53,30.14,29.82,30,5,30,0.01
2012-1-29,36,30,22,30,23,17,91,76,65,30.28,29.94,28,4,28,0.00
2012-1-30,46,33,18,34,26,15,94,77,63,30.31,29.95,20,2,20,0.00
2012-1-31,58,50,40,49,39,33,89,68,50,30.00,29.86,20,5,20,0.00
2012-2-1,52,44,37,50,40,33,94,86,78,30.14,29.87,12,2,12,0.03
2012-2-2,43,35,24,34,31,23,98,86,66,30.45,30.13,10,1,10,0.00
2012-2-3,45,32,21,38,29,21,98,90,73,30.54,30.40,9,1,9,0.00
2012-2-4,40,34,25,32,29,24,97,84,72,30.41,30.19,10,1,10,0.00
2012-2-5,45,32,20,32,27,19,98,84,54,30.29,30.19,8,1,8,0.00
2012-2-6,46,34,24,34,29,23,98,82,52,30.25,30.10,20,3,20,0.01
2012-2-7,37,32,27,32,28,22,91,84,71,30.39,30.19,6,1,14,0.00
2012-2-8,36,29,25,22,20,16,83,70,47,30.38,30.27,6,1,11,0.00
2012-2-9,37,28,23,24,21,19,89,76,55,30.32,30.16,14,3,14,0.00
2012-2-10,33,29,17,30,25,15,96,86,74,30.16,29.85,13,2,15,0.00
2012-2-11,19,15,10,15,8,0,92,74,46,30.29,29.93,20,3,20,0.00
2012-2-12,32,24,17,20,16,12,88,73,60,30.27,30.19,21,4,21,0.00
2012-2-13,35,28,21,22,17,10,77,63,38,30.22,30.00,12,2,12,0.00
2012-2-14,34,32,28,31,29,22,96,91,70,30.12,29.91,14,1,14,0.03
2012-2-15,39,36,32,36,32,28,95,85,75,30.25,30.06,11,1,11,0.17
2012-2-16,46,39,28,43,37,27,99,92,78,30.13,29.97,14,2,14,0.11
2012-2-17,44,36,25,31,28,22,98,73,48,30.19,30.00,13,2,13,0.00
2012-2-18,40,33,20,32,25,17,90,72,50,30.24,29.99,19,2,19,0.00
2012-2-19,34,25,18,22,19,16,95,79,56,30.27,30.15,11,1,11,0.00
2012-2-20,38,26,14,25,21,13,96,82,58,30.44,30.15,11,1,11,0.00
2012-2-21,44,37,25,40,33,23,97,87,76,30.16,29.70,20,3,20,0.12
2012-2-22,42,37,32,38,34,31,98,90,78,29.74,29.45,16,2,16,0.07
2012-2-23,41,36,30,36,34,29,99,92,79,29.68,29.48,10,1,10,0.23
2012-2-24,42,35,32,39,32,26,99,89,77,29.81,29.32,24,6,24,0.25
2012-2-25,32,29,26,28,24,20,92,83,73,30.41,29.81,21,6,21,0.00
2012-2-26,43,31,16,27,23,15,97,73,50,30.48,30.16,15,2,15,0.00
2012-2-27,47,38,29,29,26,22,78,62,40,30.52,30.13,26,4,26,0.00
2012-2-28,46,33,20,31,26,18,96,77,49,30.56,30.08,13,1,13,0.00
2012-2-29,61,44,34,52,38,30,98,83,37,30.08,29.49,24,3,24,0.63
2012-3-1,42,38,31,35,33,29,94,82,67,29.91,29.60,18,3,18,0.00
2012-3-2,55,39,30,52,36,29,99,88,73,29.91,29.19,35,3,35,0.77
2012-3-3,37,34,29,32,27,24,89,77,62,29.79,29.42,27,6,28,0.00
2012-3-4,36,30,28,29,27,24,96,87,67,29.93,29.78,13,2,13,0.00
2012-3-5,31,26,23,26,20,14,96,78,55,30.46,29.93,15,1,16,0.04
2012-3-6,60,43,27,38,31,22,83,63,41,30.46,30.12,20,3,20,0.04
2012-3-7,67,57,45,48,39,31,64,53,39,30.20,29.93,26,6,29,0.00
2012-3-8,61,46,26,54,39,22,94,78,61,30.19,29.83,25,5,25,0.20
2012-3-9,38,33,24,30,21,13,90,64,42,30.57,30.16,26,4,26,0.00
2012-3-10,49,40,20,29,24,13,83,53,38,30.60,30.33,17,3,17,0.00
2012-3-11,66,49,28,38,30,24,87,53,25,30.39,30.21,11,1,12,0.00
2012-3-12,63,55,43,58,50,35,97,84,57,30.21,29.81,23,2,23,0.74
2012-3-13,66,56,41,55,45,26,98,71,23,30.13,29.87,20,3,20,0.39
2012-3-14,79,58,36,56,46,32,95,67,38,30.17,30.03,14,1,14,0.00
2012-3-15,78,66,56,66,58,52,97,77,57,30.06,29.93,23,2,23,1.34
2012-3-16,76,64,57,64,59,55,96,84,64,30.12,30.02,11,1,23,0.65
2012-3-17,78,64,49,60,56,48,99,77,44,30.19,30.07,11,1,11,0.00
2012-3-18,72,62,54,64,58,52,99,87,62,30.12,30.02,9,1,9,0.21
2012-3-19,81,64,51,64,58,51,100,83,48,30.11,30.02,11,1,11,0.01
2012-3-20,83,68,53,62,58,53,100,72,41,30.15,30.05,10,1,10,0.00
2012-3-21,86,69,56,62,57,54,95,68,36,30.18,30.06,12,1,12,0.00
2012-3-22,86,68,51,62,56,50,98,69,37,30.13,30.03,12,1,12,0.00
2012-3-23,69,59,52,60,54,51,97,83,67,30.06,29.83,9,1,9,0.15
2012-3-24,67,55,49,58,53,49,99,93,69,29.88,29.76,9,0,9,0.24
2012-3-25,73,59,52,56,51,37,99,77,50,30.07,29.87,13,1,13,0.00
2012-3-26,52,41,33,37,28,20,76,60,36,30.42,30.07,15,2,16,0.00
2012-3-27,58,44,26,36,27,19,89,55,32,30.41,29.88,16,2,16,0.00
2012-3-28,70,60,46,54,43,34,75,56,32,29.99,29.73,28,5,29,0.00
2012-3-29,50,42,35,35,32,30,83,69,55,30.16,29.98,10,1,10,0.00
2012-3-30,47,40,35,40,35,30,94,83,70,30.10,29.74,19,2,19,0.03
2012-3-31,43,39,35,36,35,32,94,85,76,30.02,29.90,9,0,9,0.00
2012-4-1,60,48,36,50,42,33,93,80,64,29.96,29.69,13,1,13,0.00
2012-4-2,53,44,37,40,35,30,89,72,46,30.07,29.85,17,2,17,0.00
2012-4-3,70,49,35,55,42,31,94,79,58,30.08,29.82,17,1,17,0.24
2012-4-4,64,52,41,45,36,25,98,61,25,29.97,29.84,15,2,15,0.00
2012-4-5,49,41,34,36,32,28,84,70,54,30.16,29.94,14,2,14,0.00
2012-4-6,59,43,28,31,28,25,91,59,29,30.31,30.16,11,1,13,0.00
2012-4-7,65,46,26,41,29,20,98,59,19,30.37,30.14,9,1,9,0.00
2012-4-8,62,53,44,46,33,20,84,49,20,30.14,30.05,24,5,27,0.00
2012-4-9,62,50,35,42,31,20,97,53,22,30.07,29.84,26,4,26,0.00
2012-4-10,44,39,34,30,26,23,73,61,46,30.06,29.89,18,4,18,0.00
2012-4-11,53,41,32,33,29,25,92,65,40,30.23,30.04,12,1,12,0.00
2012-4-12,60,44,27,36,30,25,97,63,30,30.29,30.15,12,1,12,0.00
2012-4-13,67,49,30,41,32,28,98,60,24,30.30,30.13,12,1,13,0.00
2012-4-14,60,53,43,56,48,34,98,83,57,30.14,29.92,11,1,11,0.20
2012-4-15,81,67,56,62,58,56,98,74,43,29.93,29.76,19,2,19,0.01
2012-4-16,71,63,48,62,51,39,89,66,47,30.17,29.67,29,5,34,0.01
2012-4-17,60,48,34,40,37,33,98,68,43,30.37,30.17,13,1,13,0.00
2012-4-18,68,51,33,44,39,32,99,70,28,30.33,30.02,10,1,10,0.00
2012-4-19,78,64,46,50,45,38,80,53,30,30.03,29.84,15,1,15,0.00
2012-4-20,76,61,39,55,48,38,96,65,39,29.87,29.64,17,2,17,0.30
2012-4-21,52,44,38,39,36,30,95,75,56,30.02,29.86,12,1,13,0.02
2012-4-22,53,43,32,34,30,26,91,62,38,30.01,29.92,17,2,18,0.00
2012-4-23,58,48,37,28,21,14,64,38,19,29.92,29.62,23,3,23,0.00
2012-4-24,62,50,38,29,23,17,55,36,21,29.75,29.58,25,4,25,0.00
2012-4-25,66,51,33,50,38,28,95,65,28,29.84,29.73,11,1,11,0.09
2012-4-26,61,51,38,54,43,26,96,76,50,30.10,29.63,22,2,22,0.04
2012-4-27,56,43,28,31,25,21,86,52,27,30.28,30.09,11,1,11,0.00
2012-4-28,46,42,32,40,33,26,95,74,47,30.28,30.17,14,1,17,0.20
2012-4-29,59,46,29,38,28,16,98,57,19,30.36,30.20,14,1,14,0.00
2012-4-30,71,57,44,59,47,27,99,73,39,30.21,29.87,9,1,9,0.55
2012-5-1,67,58,52,60,53,50,99,85,64,30.08,29.89,13,1,13,0.05
2012-5-2,84,68,52,70,62,50,99,83,61,29.98,29.85,17,1,17,0.07
2012-5-3,88,77,62,70,64,62,100,70,43,29.99,29.84,19,2,19,0.00
2012-5-4,76,68,60,69,63,58,96,83,66,29.97,29.87,12,1,12,0.01
2012-5-5,66,60,51,58,53,47,92,79,67,30.09,29.91,18,2,18,0.00
2012-5-6,69,58,47,49,42,29,98,60,30,30.11,29.96,11,1,15,0.00
2012-5-7,69,59,51,63,55,39,99,87,51,29.97,29.77,14,1,14,1.09
2012-5-8,73,62,48,60,54,45,98,77,48,29.83,29.75,15,2,15,0.26
2012-5-9,66,55,45,52,48,45,99,79,50,29.87,29.75,19,2,19,0.02
2012-5-10,66,52,37,46,38,33,98,65,30,30.03,29.85,13,1,13,0.00
2012-5-11,75,58,37,51,40,36,99,59,25,30.18,30.03,10,1,10,0.00
2012-5-12,78,64,49,56,48,40,94,60,35,30.23,30.14,9,1,9,0.00
2012-5-13,70,60,50,58,52,45,99,75,55,30.21,30.09,11,1,11,0.00
2012-5-14,78,62,47,56,50,40,99,68,40,30.10,29.98,8,0,8,0.00
2012-5-15,83,66,44,55,46,40,98,55,23,30.00,29.83,13,1,13,0.00
2012-5-16,68,60,46,54,42,32,84,54,27,30.12,29.85,15,1,15,0.01
2012-5-17,68,55,36,48,41,35,99,64,36,30.22,30.12,12,1,12,0.00
2012-5-18,77,60,39,51,44,38,98,62,27,30.18,30.05,9,1,9,0.00
2012-5-19,88,67,44,56,50,44,99,62,25,30.14,30.06,10,0,10,0.00
2012-5-20,91,73,50,60,54,49,97,58,28,30.15,29.98,10,0,10,0.00
2012-5-21,81,68,58,64,58,54,89,73,48,29.99,29.93,18,1,18,0.00
2012-5-22,74,62,49,57,52,47,96,70,45,29.98,29.89,11,1,11,0.00
2012-5-23,79,64,45,59,53,44,100,71,38,29.96,29.83,10,0,10,0.00
2012-5-24,87,74,54,65,59,52,98,65,40,29.92,29.75,14,1,14,0.00
2012-5-25,92,79,65,68,60,50,71,54,32,30.10,29.83,13,2,13,0.00
2012-5-26,77,69,62,62,57,51,84,65,45,30.23,30.07,13,1,15,0.00
2012-5-27,90,73,62,70,63,57,87,72,50,30.11,29.89,19,1,19,0.00
2012-5-28,96,82,65,71,65,61,98,60,34,29.92,29.71,14,1,14,0.00
2012-5-29,85,75,61,71,60,46,96,62,27,29.79,29.66,13,1,13,0.40
2012-5-30,77,64,49,54,49,44,98,61,35,29.88,29.78,13,1,13,0.00
2012-5-31,65,57,50,55,50,47,96,80,61,29.98,29.80,11,2,13,0.02
2012-6-1,60,56,50,60,54,45,99,93,82,29.79,29.53,17,2,17,0.65
2012-6-2,70,52,47,52,46,44,90,80,48,29.75,29.70,15,2,15,0.00
2012-6-3,80,72,57,56,48,41,85,46,27,29.77,29.71,20,4,20,0.00
2012-6-4,73,62,50,56,52,46,98,71,45,29.90,29.74,10,1,10,0.00
2012-6-5,67,58,47,53,50,45,97,76,55,30.01,29.88,14,1,14,0.00
2012-6-6,78,62,46,61,51,45,99,72,35,30.07,29.99,8,0,8,0.00
2012-6-7,82,66,50,57,51,47,98,64,29,30.08,29.99,5,1,11,0.00
2012-6-8,86,69,50,55,49,38,96,58,21,30.07,29.90,9,1,9,0.00
2012-6-9,90,75,56,58,53,50,93,52,27,29.97,29.86,14,1,14,0.00
2012-6-10,92,77,56,62,57,52,94,55,26,30.03,29.93,10,1,10,0.00
2012-6-11,80,72,67,72,66,57,95,82,58,29.97,29.83,14,0,14,0.28
2012-6-12,82,72,56,68,58,45,96,64,30,30.07,29.79,19,2,19,0.00
2012-6-13,72,60,47,52,48,43,98,68,44,30.20,30.07,5,1,10,0.00
2012-6-14,76,63,46,61,53,46,99,72,39,30.22,30.11,13,1,13,0.00
2012-6-15,88,72,53,64,58,52,99,68,31,30.16,30.09,12,1,12,0.00
2012-6-16,92,79,65,68,63,59,88,61,38,30.16,29.92,11,1,11,0.00
2012-6-17,83,74,61,72,67,58,96,79,59,29.92,29.79,11,1,11,1.15
2012-6-18,87,72,58,74,66,57,100,85,60,29.90,29.78,15,1,15,0.49
2012-6-19,95,83,73,73,67,64,80,61,41,30.02,29.89,13,1,13,0.00
2012-6-20,94,82,66,70,65,60,93,59,33,30.08,29.91,12,1,12,0.00
2012-6-21,94,78,65,71,66,63,96,71,39,29.96,29.77,14,1,14,0.08
2012-6-22,84,72,60,66,60,53,100,69,37,29.96,29.88,10,0,10,0.00
2012-6-23,84,70,55,64,58,54,99,70,41,30.03,29.95,10,0,10,0.00
2012-6-24,89,77,65,68,60,56,77,57,35,30.02,29.84,9,1,9,0.00
2012-6-25,76,68,52,62,53,44,89,60,35,30.01,29.86,15,2,15,0.00
2012-6-26,82,65,46,54,49,45,99,64,31,30.07,29.93,9,1,9,0.00
2012-6-27,90,72,51,55,52,49,97,56,26,30.03,29.80,10,1,10,0.00
2012-6-28,103,84,64,76,65,53,74,56,37,29.84,29.63,14,2,14,0.00
2012-6-29,91,78,63,74,66,57,97,71,36,29.83,29.69,13,1,16,0.01
2012-6-30,94,78,63,70,66,62,98,70,37,29.83,29.74,10,1,10,0.03
2012-7-1,95,75,61,70,65,60,100,78,38,29.98,29.82,18,1,18,1.31
2012-7-2,93,78,64,75,69,62,100,76,38,30.00,29.89,5,0,5,0.01
2012-7-3,96,82,72,76,70,64,94,71,38,29.91,29.76,11,0,11,0.00
2012-7-4,99,84,70,77,72,67,98,69,41,29.85,29.76,11,0,11,0.00
2012-7-5,97,80,71,76,72,69,94,76,48,29.91,29.83,18,1,18,0.05
2012-7-6,100,88,69,80,75,69,100,66,43,29.95,29.86,4,0,4,0.00
2012-7-7,100,87,74,79,74,69,89,69,42,29.93,29.80,11,1,11,0.00
2012-7-8,85,76,64,69,63,56,93,66,38,30.01,29.92,8,0,10,0.00
2012-7-9,88,71,58,70,64,58,100,81,43,30.04,29.95,6,0,6,0.23
2012-7-10,82,72,61,66,60,54,100,71,40,30.10,29.98,11,1,11,0.01
2012-7-11,84,70,57,64,57,50,98,67,33,30.15,30.08,11,0,11,0.00
2012-7-12,86,73,56,67,62,55,99,72,44,30.12,30.04,12,0,12,0.00
2012-7-13,90,78,65,69,64,58,98,66,40,30.11,30.02,11,0,11,0.00
2012-7-14,88,76,62,71,66,61,98,75,47,30.09,29.98,8,0,8,0.00
2012-7-15,92,81,71,74,69,64,96,71,40,30.04,29.90,11,0,11,0.01
2012-7-16,97,82,65,72,66,62,94,63,32,29.98,29.81,8,0,10,0.00
2012-7-17,100,87,72,74,70,66,85,59,35,29.84,29.72,13,1,13,0.00
2012-7-18,88,80,71,77,72,67,96,76,59,29.95,29.78,9,0,9,0.31
2012-7-19,85,75,68,74,70,66,97,87,61,29.92,29.83,12,0,12,0.09
2012-7-20,79,69,58,66,61,57,98,79,52,30.04,29.90,11,1,11,1.66
2012-7-21,86,72,55,65,60,55,100,71,42,30.10,30.00,8,1,8,0.00
2012-7-22,91,79,64,71,68,63,98,70,46,30.08,29.98,10,1,10,0.00
2012-7-23,94,82,73,76,71,68,89,71,49,30.02,29.79,18,2,20,0.01
2012-7-24,89,79,66,74,68,60,94,72,40,29.95,29.80,20,1,20,0.04
2012-7-25,89,75,55,76,65,54,99,73,49,29.95,29.61,13,1,13,0.00
2012-7-26,88,80,71,76,72,69,96,78,58,29.70,29.57,12,1,12,0.03
2012-7-27,89,74,65,71,68,64,99,84,49,29.88,29.69,20,1,20,0.57
2012-7-28,82,70,63,69,65,60,100,84,54,30.06,29.88,9,0,9,0.01
2012-7-29,85,72,59,66,62,57,99,72,41,30.10,29.98,7,0,7,0.00
2012-7-30,88,76,63,70,64,58,89,68,44,30.01,29.87,11,0,12,0.00
2012-7-31,88,76,66,71,65,62,92,72,48,29.94,29.80,18,1,18,0.01
2012-8-1,87,74,62,68,61,54,98,70,34,29.91,29.84,10,1,10,0.00
2012-8-2,92,75,58,66,61,54,100,68,30,29.90,29.81,10,0,10,0.00
2012-8-3,96,80,62,70,66,61,98,67,37,29.92,29.85,11,1,11,0.00
2012-8-4,92,78,67,78,71,65,98,81,56,29.95,29.82,15,1,15,1.33
2012-8-5,84,73,62,74,67,55,99,84,48,30.10,29.85,13,1,16,0.14
2012-8-6,83,68,53,62,57,52,99,72,40,30.15,30.00,7,0,7,0.00
2012-8-7,88,72,55,65,60,55,100,72,39,30.00,29.88,13,1,13,0.00
2012-8-8,89,76,64,73,67,62,99,75,52,29.93,29.88,7,0,7,0.00
2012-8-9,72,68,64,68,65,63,99,92,75,29.92,29.73,14,0,14,0.76
2012-8-10,68,63,60,64,61,58,100,93,78,29.75,29.65,13,2,13,0.75
2012-8-11,71,63,59,64,60,57,99,90,76,29.94,29.73,13,2,13,0.00
2012-8-12,79,68,58,64,60,56,98,78,48,30.00,29.93,11,1,11,0.00
2012-8-13,77,68,60,66,62,59,99,82,57,30.00,29.90,5,0,5,0.05
2012-8-14,78,67,58,67,63,58,99,89,58,29.91,29.85,9,0,9,0.43
2012-8-15,81,66,56,68,63,56,100,89,59,29.97,29.90,7,0,7,0.02
2012-8-16,82,70,61,68,64,61,100,82,55,29.96,29.77,16,1,16,0.05
2012-8-17,77,67,53,64,58,51,99,78,44,29.97,29.83,14,1,14,0.07
2012-8-18,78,62,48,56,49,41,100,68,31,30.02,29.92,6,0,6,0.00
2012-8-19,80,64,49,58,51,46,97,70,32,29.95,29.86,8,0,8,0.00
2012-8-20,78,64,50,62,56,49,100,79,45,29.98,29.90,8,0,8,0.16
2012-8-21,80,65,54,62,57,54,100,79,43,30.08,29.98,9,0,9,0.01
2012-8-22,83,67,52,64,55,48,100,72,31,30.14,30.06,8,0,8,0.00
2012-8-23,88,69,52,64,57,51,100,72,32,30.15,30.06,7,0,7,0.00
2012-8-24,89,72,56,66,61,55,100,72,36,30.12,30.02,8,0,8,0.00
2012-8-25,93,76,59,68,62,53,99,68,28,30.10,30.03,10,0,10,0.00
2012-8-26,91,77,64,69,64,60,98,66,37,30.11,29.97,13,1,13,0.00
2012-8-27,84,72,66,74,69,63,100,91,67,29.99,29.90,8,0,8,1.73
2012-8-28,81,70,59,64,60,56,98,74,45,30.08,29.98,13,1,13,0.00
2012-8-29,82,68,55,65,60,55,100,79,45,30.10,30.00,6,0,6,0.00
2012-8-30,85,68,53,64,59,52,100,78,40,30.11,29.99,10,0,10,0.00
2012-8-31,92,74,56,73,66,56,100,78,48,30.07,29.97,17,1,17,0.00
2012-9-1,80,73,66,72,67,62,98,83,65,30.08,29.99,7,0,7,0.21
2012-9-2,81,73,66,75,70,66,100,92,79,30.00,29.91,13,1,13,0.01
2012-9-3,86,76,68,76,71,67,100,87,67,29.92,29.84,9,0,9,0.00
2012-9-4,83,74,66,75,71,65,100,91,70,29.87,29.80,14,0,14,0.01
2012-9-5,80,72,64,73,69,64,100,92,69,29.87,29.75,7,0,7,0.10
2012-9-6,87,73,63,73,66,60,100,82,42,29.89,29.80,9,1,9,0.01
2012-9-7,82,69,57,70,63,56,100,84,52,29.90,29.65,6,0,12,0.11
2012-9-8,72,62,52,66,55,50,98,78,48,29.85,29.62,16,2,16,0.55
2012-9-9,72,60,49,56,52,47,99,79,45,30.09,29.85,6,0,6,0.00
2012-9-10,76,59,44,55,49,42,100,74,31,30.23,30.09,6,0,6,0.00
2012-9-11,80,63,47,58,53,47,100,73,40,30.24,30.14,10,1,10,0.00
2012-9-12,84,66,50,62,57,49,99,75,43,30.25,30.15,11,1,11,0.00
2012-9-13,84,69,58,65,60,53,98,75,37,30.25,30.16,12,1,12,0.00
2012-9-14,72,60,50,60,53,43,97,81,37,30.28,30.17,14,1,14,0.14
2012-9-15,75,58,44,53,47,42,99,71,33,30.34,30.16,9,0,9,0.00
2012-9-16,78,60,44,56,50,43,100,74,39,30.17,30.02,8,0,8,0.00
2012-9-17,79,64,48,64,56,46,98,78,48,30.03,29.69,8,0,8,0.56
2012-9-18,65,58,40,65,51,37,98,81,55,30.00,29.57,19,2,19,0.04
2012-9-19,68,53,37,47,40,36,99,67,34,30.14,30.00,11,1,11,0.00
2012-9-20,72,59,50,56,49,41,96,71,49,30.02,29.85,11,1,12,0.10
2012-9-21,71,55,43,53,47,40,100,78,34,29.96,29.75,10,1,11,0.17
2012-9-22,58,50,44,53,48,43,99,93,74,30.11,29.74,14,1,14,0.42
2012-9-23,58,48,36,49,43,35,100,83,55,30.24,30.10,12,1,12,0.01
2012-9-24,66,50,33,43,37,32,100,67,33,30.25,29.99,15,1,15,0.00
2012-9-25,70,57,45,59,50,39,96,77,51,30.00,29.89,11,1,11,0.00
2012-9-26,73,62,54,66,61,50,99,94,76,30.13,29.88,8,0,8,0.13
2012-9-27,66,56,46,56,50,45,99,80,51,30.20,30.13,14,1,14,0.00
2012-9-28,69,55,47,56,49,45,100,82,44,30.17,30.08,7,0,7,0.00
2012-9-29,47,46,44,46,45,44,98,98,97,30.09,30.08,0,0,0,0.00
2012-9-30,66,53,42,50,46,42,100,80,51,29.95,29.89,6,0,13,0.00
2012-10-1,67,53,36,56,47,36,100,84,54,29.97,29.80,10,0,10,0.04
2012-10-2,66,58,52,60,56,52,99,94,79,29.90,29.79,11,1,11,0.40
2012-10-3,66,61,58,61,58,55,100,90,74,30.08,29.88,10,0,10,0.01
2012-10-4,77,65,53,58,55,51,93,72,46,30.12,30.01,12,1,12,0.00
2012-10-5,68,54,42,58,50,40,97,86,71,30.08,29.99,11,1,12,0.45
2012-10-6,53,44,37,42,38,35,97,80,54,30.15,29.98,17,2,17,0.00
2012-10-7,50,44,40,41,39,36,96,83,60,30.19,30.10,10,0,10,0.00
2012-10-8,56,41,29,40,33,28,99,76,38,30.26,30.14,11,1,11,0.00
2012-10-9,63,48,33,43,38,30,98,71,40,30.16,29.88,16,2,16,0.00
2012-10-10,53,48,42,44,41,33,96,79,54,30.03,29.83,20,3,20,0.05
2012-10-11,61,53,29,41,35,28,98,53,36,30.25,30.09,17,2,18,0.00
2012-10-12,54,44,30,42,33,27,96,68,36,30.45,30.19,12,1,12,0.00
2012-10-13,65,49,29,62,44,28,98,84,57,30.40,29.91,13,1,13,0.16
2012-10-14,71,66,55,63,60,50,92,83,72,29.92,29.48,23,4,23,0.03
2012-10-15,55,50,47,50,45,40,95,83,71,29.97,29.60,18,3,18,0.03
2012-10-16,63,51,41,44,40,37,91,67,42,30.01,29.76,11,1,11,0.00
2012-10-17,75,62,53,56,50,44,97,68,40,29.77,29.50,18,2,18,0.09
2012-10-18,62,56,48,56,44,35,95,67,39,29.67,29.39,24,2,24,0.27
2012-10-19,55,49,45,47,43,38,97,82,61,29.63,29.56,13,1,13,0.21
2012-10-20,55,48,41,47,45,39,96,88,69,29.95,29.61,16,2,16,0.00
2012-10-21,63,49,38,45,42,37,99,79,49,30.12,29.95,11,1,11,0.00
2012-10-22,74,58,40,59,51,39,100,81,54,30.11,29.96,9,0,9,0.08
2012-10-23,71,63,60,61,58,56,94,84,69,30.01,29.92,11,1,11,0.19
2012-10-24,79,67,59,62,59,54,97,77,56,30.03,29.95,11,1,11,0.03
2012-10-25,78,66,54,59,55,51,93,69,46,30.00,29.86,16,2,16,0.00
2012-10-26,67,50,45,56,43,37,93,78,68,30.23,29.86,17,2,17,0.05
2012-10-27,56,46,39,40,36,32,83,69,46,30.22,30.12,16,1,16,0.00
2012-10-28,51,43,37,38,32,29,83,68,52,30.20,30.09,18,2,18,0.00
2012-10-29,43,41,37,33,31,26,73,66,55,30.10,29.67,27,4,27,0.00
2012-10-30,42,37,34,37,34,29,95,89,72,29.67,29.46,23,4,23,0.27
2012-10-31,42,39,36,39,37,35,95,91,85,29.72,29.55,13,4,17,0.04
2012-11-1,50,43,39,38,33,28,87,70,47,29.83,29.71,17,4,17,0.00
2012-11-2,43,40,33,34,30,28,81,69,61,30.11,29.83,13,2,13,0.00
2012-11-3,46,38,27,32,30,25,96,75,54,30.22,30.11,10,1,10,0.00
2012-11-4,38,34,26,30,28,24,92,76,65,30.24,30.19,6,0,8,0.00
2012-11-5,44,30,21,32,24,20,98,82,53,30.26,30.19,8,0,8,0.00
2012-11-6,45,30,20,31,26,19,97,84,55,30.19,30.00,14,1,14,0.00
2012-11-7,49,35,27,38,31,26,98,85,62,30.18,29.99,11,1,11,0.00
2012-11-8,49,34,22,36,29,22,98,84,57,30.28,30.18,7,0,7,0.01
2012-11-9,58,43,26,45,36,25,99,79,55,30.26,30.10,10,1,10,0.01
2012-11-10,67,56,48,51,48,45,92,74,55,30.16,30.05,15,1,15,0.00
2012-11-11,68,59,51,50,44,39,75,57,41,30.17,29.98,20,3,20,0.00
2012-11-12,61,43,32,54,38,25,96,83,55,30.32,29.91,16,3,16,0.75
2012-11-13,38,33,23,27,24,21,95,72,55,30.58,30.32,10,1,10,0.00
2012-11-14,41,30,20,29,25,18,97,83,60,30.63,30.46,8,0,8,0.00
2012-11-15,45,34,26,34,30,25,97,85,63,30.46,30.36,6,0,6,0.00
2012-11-16,53,34,22,36,27,21,98,80,42,30.55,30.40,6,0,6,0.00
2012-11-17,54,37,22,42,33,21,98,85,52,30.65,30.55,8,0,8,0.00
2012-11-18,55,37,27,41,31,27,99,84,45,30.56,30.43,7,0,7,0.01
2012-11-19,54,38,25,40,32,24,99,83,47,30.43,30.20,4,0,4,0.00
2012-11-20,59,46,35,42,38,33,95,77,47,30.20,30.09,4,0,4,0.00
2012-11-21,60,42,31,44,37,30,99,84,49,30.27,30.16,8,0,8,0.00
2012-11-22,62,48,32,47,41,32,100,79,55,30.20,29.83,16,2,16,0.01
2012-11-23,54,39,32,50,33,25,95,79,67,30.07,29.77,27,6,27,0.12
2012-11-24,33,31,29,27,23,20,79,70,61,30.18,30.06,18,4,18,0.00
2012-11-25,40,31,24,28,25,22,97,78,60,30.09,29.89,13,2,13,0.00
2012-11-26,41,32,23,31,26,22,97,79,60,30.33,30.06,10,1,10,0.00
2012-11-27,36,27,19,24,19,16,90,74,51,30.43,30.30,11,1,11,0.00
2012-11-28,41,31,22,28,23,20,93,72,53,30.38,30.28,21,2,21,0.00
2012-11-29,48,37,26,31,28,23,89,72,50,30.37,30.24,14,2,14,0.00
2012-11-30,48,41,34,39,34,30,94,77,60,30.25,30.14,17,1,17,0.00
2012-12-1,60,50,40,50,44,39,96,82,67,30.27,30.04,16,2,16,0.00
2012-12-2,57,55,52,55,52,48,98,92,81,30.12,29.96,14,2,14,0.15
2012-12-3,64,58,52,61,56,52,100,95,86,30.13,29.96,16,1,16,0.00
2012-12-4,60,51,40,56,47,34,94,85,76,30.17,29.94,17,2,17,0.07
2012-12-5,40,32,20,35,25,19,95,77,54,30.44,30.16,13,1,13,0.00
2012-12-6,38,31,20,32,27,18,97,85,72,30.38,29.99,9,0,9,0.00
2012-12-7,45,41,35,44,39,32,99,94,88,30.02,29.86,4,0,4,0.14
2012-12-8,43,39,33,43,38,32,99,96,90,30.18,29.82,8,0,8,0.07
2012-12-9,42,39,36,42,37,33,99,93,83,30.18,29.66,17,2,17,0.26
2012-12-10,43,38,32,43,35,28,100,88,79,29.92,29.65,15,3,15,0.00
2012-12-11,36,30,25,30,25,21,94,80,64,30.24,29.90,12,2,12,0.00
2012-12-12,43,30,22,29,25,21,97,82,52,30.43,30.23,10,1,10,0.00
2012-12-13,45,33,21,31,26,20,98,80,50,30.44,30.23,12,1,12,0.00
2012-12-14,49,35,26,33,28,24,96,79,54,30.30,30.19,8,1,10,0.00
2012-12-15,49,39,27,45,35,26,98,86,62,30.19,29.71,11,1,11,0.05
2012-12-16,55,51,42,51,47,38,93,86,76,29.71,29.60,16,3,16,0.01
2012-12-17,42,41,36,38,37,34,93,85,80,29.76,29.62,9,0,11,0.02
2012-12-18,41,36,32,35,33,30,97,88,73,29.82,29.65,13,2,13,0.14
2012-12-19,41,37,34,36,35,32,98,91,80,30.14,29.75,10,0,10,0.01
2012-12-20,49,40,32,47,38,30,98,90,72,30.04,29.19,24,4,24,0.79
2012-12-21,35,33,32,33,29,24,97,83,69,29.97,29.20,27,6,27,0.07
2012-12-22,37,31,23,27,24,20,90,76,62,30.15,29.97,22,4,22,0.00
2012-12-23,38,26,17,28,22,16,96,86,63,30.07,29.95,9,0,9,0.00
2012-12-24,35,29,19,31,26,18,97,90,77,30.06,29.82,12,1,12,0.00
2012-12-25,33,30,22,27,25,21,96,84,75,30.32,30.06,11,1,11,0.00
2012-12-26,31,28,25,28,26,24,96,89,76,30.23,29.81,23,5,23,0.00
2012-12-27,32,25,13,26,22,12,96,88,77,30.21,29.90,12,2,12,0.03
2012-12-28,34,24,11,28,21,9,96,90,76,30.25,29.93,6,0,6,0.02
2012-12-29,30,28,23,28,26,22,97,93,90,30.14,29.83,6,1,6,0.00
2012-12-30,28,22,16,26,19,13,96,88,79,30.39,30.14,13,2,13,0.00
2012-12-31,35,30,22,30,26,18,94,85,70,30.25,30.01,22,4,22,0.02
2013-1-1,30,21,8,26,14,6,94,77,58,30.18,30.06,13,1,13,0.00